SCP
0 0 0 0 0 0 0 0 0 0 0 0 0 0 0 0 0 0 0 0 0 0 0 0 0 0 0 0 0 0 0 0 0 0 0 0 0 0 0 0 0 0 0
0 0 0 0 0 0 0 0 0 0 0 0 0 0 0 0 0 0 0 0 0 0 0 0 0 0 0 0 0 0 0 0 0 0 0 0 0 0 0 0 0 0 0
0 0 0 0 0 0 0 0 0 0 0 0 0 0 0 0 0 0 0 0 0 0 0 0 0 0 0 0 0 0 0 0 0 0 0 0 0 0 0 0 0 0 0
0 0 0 1 1 0 0 0 0 0 0 0 0 0 -0 0 0 0 0 0 0 0 0 0 0 0 -0 -0 0 0 0 0 0 0 0 0 0 0 0 0 0 0 0
0 0 0 0 0 1 0 1 1 1 1 0 0 0 0 0 0 0 0 0 0 0 0 0 0 0 0 0 0 0 0 0 0 0 0 0 0 0 0 0 0 0 1
0 0 0 0 0 0 0 0 0 0 1 1 0 0 0 -0 0 0 0 0 0 0 0 0 0 0 0 0 0 0 0 0 0 0 0 0 0 0 0 0 0 0 0
0 0 0 0 0 -0 0 -0 -0 1 1 1 0 0 0 0 0 0 0 0 0 0 0 0 0 0 0 0 0 0 0 0 0 0 0 0 0 0 0 0 0 0 0
0 0 0 0 0 0 0 0 1 0 0 1 1 0 0 0 0 0 0 0 0 0 0 0 0 0 0 0 0 0 0 0 0 0 0 0 0 0 0 0 0 0 -0
0 0 0 0 0 0 0 0 0 0 1 1 1 1 1 1 0 0 0 0 0 0 0 0 0 0 0 0 0 0 -0 0 0 0 0 0 0 0 0 0 -0 0 0
0 0 0 0 0 0 0 0 0 0 0 1 1 0 1 0 0 0 0 0 0 0 0 0 -0 0 0 0 0 -0 -0 0 0 0 0 0 0 0 0 0 -0 -0 0
0 0 0 0 0 0 0 0 0 0 0 0 1 1 0 0 1 1 0 0 0 0 0 0 0 -0 0 0 0 0 -0 0 -0 0 0 0 0 0 0 -0 -0 0 0
0 0 0 0 0 0 0 0 0 0 0 0 0 0 0 0 0 1 0 0 0 0 0 0 -0 -0 0 0 0 0 0 0 -0 0 -0 0 0 0 0 0 -0 0 0
0 0 0 0 0 0 0 0 0 0 0 0 0 0 0 0 0 0 0 0 0 0 0 0 -0 -0 0 0 0 0 -0 0 -0 0 -0 -0 0 0 0 0 0 0 0
0 0 0 0 0 0 0 0 0 0 0 0 0 0 0 0 0 0 0 0 0 0 -0 0 -0 -0 0 0 0 -0 0 -0 -0 0 -0 -0 -0 0 0 0 0 -0 -0
0 0 0 0 0 0 0 0 0 0 0 0 0 0 0 0 0 0 -0 0 -0 -0 0 0 -0 0 -0 0 0 0 0 0 0 -0 0 -0 -0 -0 -0 0 0 -0 -0
0 0 0 0 0 0 0 0 0 0 0 0 0 0 0 0 0 -0 0 -0 0 0 0 0 0 0 0 -0 -0 0 -0 0 0 0 0 -0 -0 -0 0 0 0 -0 0
0 0 0 0 0 0 0 0 0 0 0 0 0 0 0 -0 0 0 -0 0 0 -0 0 0 -0 0 0 -0 -0 0 0 0 0 0 0 -0 0 -0 0 0 0 -0 0
0 0 0 0 0 0 0 0 0 0 0 0 0 0 0 -0 0 0 0 0 0 0 0 0 0 0 0 -0 0 0 0 0 0 0 0 0 0 0 0 0 0 0 0
0 0 0 0 0 0 0 0 0 0 0 0 0 0 0 0 -0 0 0 0 0 0 0 0 -0 -0 0 -0 0 0 0 0 0 0 0 0 -0 -0 0 0 0 0 -0
0 0 0 0 0 0 0 0 0 0 0 0 0 0 0 -0 -0 -0 -0 0 0 0 0 0 0 0 -0 -0 -0 -0 0 0 0 0 -0 -0 -0 -0 0 0 0 0 0
0 0 0 0 0 0 0 0 0 0 0 0 0 0 0 0 -0 -0 -0 0 0 0 0 0 0 0 0 0 -0 -0 0 0 0 0 0 0 -0 -0 0 0 0 0 0
0 0 0 0 0 0 0 0 0 0 0 0 0 0 0 0 0 0 0 0 0 0 0 0 0 0 0 0 0 0 0 0 0 0 0 0 -0 -0 0 0 0 0 0
0 0 0 0 0 0 0 0 0 0 0 0 0 0 0 0 0 0 0 0 0 0 0 0 0 0 -0 0 0 -0 -0 -0 0 0 0 0 -0 -0 0 0 0 0 0
0 0 0 0 0 0 0 0 0 0 0 0 0 0 0 0 0 0 0 0 0 -0 0 0 0 -0 0 0 0 -0 -0 -0 -0 -0 -0 -0 0 -0 0 0 0 0 0
0 0 0 0 0 0 0 0 0 0 0 0 0 0 -0 0 0 0 0 0 0 0 0 0 0 0 0 0 0 0 0 0 -0 -0 -0 0 0 0 0 0 0 0 0
0 0 0 0 0 0 0 0 0 0 0 0 0 0 -0 0 0 0 0 0 0 -0 -0 0 0 0 0 0 0 0 0 0 0 -0 0 -0 -0 -0 -0 -0 0 0 0
Wind_Speed_500mb
23 32 34 32 28 27 29 31 20 22 19 16 19 29 26 20 18 19 19 23 19 21 22 18 22 24 22 27 35 26 26 24 27 30 32 36 32 36 30 33 37 38 47
13 20 30 30 35 40 31 34 27 24 22 18 17 23 21 21 20 22 25 26 21 21 19 24 23 26 25 28 28 27 24 22 26 27 30 33 30 28 32 26 30 37 35
18 21 17 22 32 36 36 30 28 28 26 19 15 22 30 27 19 18 24 31 25 21 21 24 27 24 25 25 27 24 24 28 21 24 20 20 24 34 25 24 34 29 29
14 12 15 12 26 25 40 32 30 29 25 19 13 16 19 21 30 30 30 32 30 22 23 23 24 28 24 31 25 24 26 23 25 25 21 28 31 26 28 18 20 22 30
20 15 16 18 19 22 31 26 32 31 23 21 19 14 20 24 25 28 31 29 26 19 23 19 24 27 21 30 22 26 27 22 27 26 37 33 31 34 38 40 35 25 24
14 17 20 26 20 30 39 29 24 16 16 17 19 20 21 21 25 26 22 18 20 25 28 25 21 24 29 21 21 23 25 22 24 20 28 27 35 36 39 40 44 39 43
13 21 20 24 31 23 22 23 19 28 25 18 19 22 23 23 27 23 20 19 16 17 15 19 19 21 25 18 20 23 22 24 21 26 29 36 44 41 42 39 46 45 45
26 25 27 27 32 33 34 28 26 31 18 16 32 26 25 21 22 27 15 22 15 18 19 16 18 22 22 12 20 21 20 25 28 28 31 41 47 29 26 34 36 21 23
27 29 31 24 28 33 36 37 31 29 28 33 40 37 24 26 27 25 24 21 17 14 13 20 17 23 20 15 20 23 22 24 25 26 25 36 39 29 14 15 19 17 6
26 23 23 25 28 34 36 33 36 34 43 31 35 31 33 32 30 22 27 24 23 22 18 17 15 17 18 17 19 22 25 20 22 21 20 24 27 34 11 8 11 13 18
24 28 30 30 31 33 34 36 37 39 45 44 39 39 45 39 37 33 29 27 26 24 26 20 20 15 18 20 19 20 18 13 14 18 19 19 18 35 14 8 10 2 6
28 28 28 28 28 31 34 36 37 38 39 39 55 37 34 43 47 40 27 29 31 27 27 21 21 17 20 13 14 17 11 11 14 18 20 18 18 19 30 14 5 1 1
21 27 29 31 34 34 35 38 39 41 41 50 44 42 43 39 42 41 40 31 30 32 25 18 18 12 13 12 9 8 9 9 11 16 21 23 17 19 16 17 23 23 12
22 25 30 35 36 34 37 39 40 41 43 43 43 44 41 40 42 44 36 33 27 29 27 23 20 21 11 12 11 5 8 5 7 11 15 19 20 15 15 13 19 21 17
25 28 31 35 36 37 38 40 40 40 44 43 43 57 46 39 37 39 32 29 24 30 25 29 21 17 14 14 11 5 5 6 7 10 13 18 22 20 17 13 9 23 25
29 33 33 36 37 39 39 39 40 43 42 50 46 53 57 38 38 40 26 29 23 29 24 20 18 16 15 21 21 9 6 5 3 5 6 9 16 19 15 17 17 23 23
32 36 38 36 37 39 40 38 43 45 48 44 51 46 53 42 41 31 29 26 27 23 24 20 19 20 24 21 25 19 11 6 7 3 8 10 12 13 14 14 15 19 14
38 40 40 39 38 42 42 47 46 46 45 46 45 48 50 40 20 16 21 21 25 25 20 26 21 21 22 23 19 19 14 9 8 5 2 3 10 13 8 9 9 10 7
39 41 41 42 41 47 45 46 43 44 39 40 43 49 44 40 23 17 27 20 23 27 18 17 22 21 25 25 22 18 17 18 9 8 9 1 5 3 7 8 6 6 3
39 40 41 39 39 41 37 41 37 38 35 39 47 49 42 34 30 22 23 27 22 24 26 28 22 22 21 24 28 24 21 22 15 14 14 11 11 5 4 8 6 7 5
36 35 36 36 37 36 40 41 42 38 43 42 42 42 42 34 27 29 23 30 29 26 23 26 28 25 24 23 20 23 27 26 25 19 21 20 10 7 7 9 6 8 8
32 33 34 33 31 31 39 37 40 44 40 43 41 42 40 34 29 30 26 19 24 34 29 27 27 21 25 30 26 23 20 24 20 16 27 31 14 8 12 10 7 2 3
31 31 31 32 31 36 35 35 36 36 38 38 39 39 38 33 30 31 24 18 15 14 27 23 26 28 30 39 27 20 15 21 23 17 8 10 8 14 22 21 17 11 6
28 29 32 34 33 33 32 36 41 38 42 40 37 38 34 36 30 30 25 16 17 10 17 16 21 32 19 30 32 31 24 20 28 28 24 19 21 16 17 22 24 25 17
26 29 31 30 31 30 33 33 38 42 39 35 34 35 37 30 29 30 29 22 15 24 8 11 27 18 23 13 25 10 28 23 26 25 21 20 15 15 15 17 20 18 16
27 30 30 27 30 32 31 33 34 37 38 36 33 35 30 31 24 27 27 24 16 17 24 15 19 29 26 20 25 25 15 19 23 21 23 27 24 20 20 20 20 19 21
Wind_Direction_500mb
236 223 223 226 239 234 248 276 265 259 268 300 321 330 325 311 306 310 311 305 300 303 297 303 298 298 291 292 299 313 301 313 310 302 296 291 276 265 261 256 252 250 246
212 202 228 237 235 246 261 254 260 245 254 278 291 318 333 318 292 290 295 308 298 294 293 291 288 295 293 295 301 300 310 313 313 313 303 291 289 266 241 259 252 249 248
224 195 212 231 250 248 243 251 249 240 242 250 296 312 315 284 289 297 302 295 289 288 287 288 291 289 292 290 289 306 308 309 307 303 301 310 291 311 286 258 248 250 250
261 260 265 225 252 243 236 231 241 237 241 244 268 290 321 296 296 291 286 285 281 260 283 276 285 285 281 281 287 297 300 305 308 299 309 291 289 289 288 269 250 253 254
346 293 284 317 296 284 231 235 246 224 231 230 246 287 312 296 296 288 294 300 303 278 291 279 279 286 285 283 292 299 290 300 309 322 323 301 289 284 269 274 270 264 255
346 326 297 331 313 292 305 309 303 195 218 226 250 269 292 295 288 296 296 296 297 309 301 280 283 282 283 289 293 289 293 302 302 314 335 330 308 283 276 264 275 269 263
7 345 359 338 337 333 340 341 303 291 248 222 249 265 272 282 293 311 301 299 321 309 284 290 285 281 288 294 300 309 307 308 300 305 319 324 323 297 273 262 270 265 267
11 355 1 349 334 330 325 326 325 325 308 261 252 256 263 272 285 285 275 284 283 296 304 297 287 283 294 304 308 322 313 299 298 299 316 339 324 324 280 261 256 247 235
13 6 357 355 335 329 326 322 316 308 291 273 255 237 254 265 260 268 270 267 271 294 312 285 295 282 285 297 312 306 307 311 302 302 322 353 350 329 306 246 230 227 270
3 355 347 336 330 327 319 326 329 313 305 288 275 278 271 276 277 258 278 274 265 277 276 301 300 298 275 290 303 305 303 311 311 321 324 349 351 5 317 195 196 199 223
333 324 333 333 333 331 329 330 325 320 316 315 288 261 266 270 257 263 263 274 282 280 274 286 294 290 291 299 288 303 311 320 329 336 349 334 338 11 34 156 154 221 249
336 338 341 336 337 335 335 335 334 330 324 315 302 302 275 263 265 259 253 270 271 269 279 279 277 270 286 284 279 308 348 4 355 0 9 15 17 16 49 83 117 115 118
339 333 337 337 333 331 332 334 331 328 326 322 317 300 280 270 261 258 260 265 258 269 267 283 271 255 281 264 268 293 338 358 6 16 25 33 38 36 42 69 68 85 85
339 337 337 340 337 334 332 329 329 329 326 326 326 312 290 274 266 253 267 256 251 263 253 266 263 256 255 254 254 344 303 340 20 23 42 45 45 38 59 76 89 81 97
336 334 335 336 336 336 332 331 332 330 329 326 324 332 310 278 273 268 260 251 240 257 258 255 234 248 239 238 220 289 286 321 3 56 58 42 44 47 56 52 102 98 93
333 327 327 326 329 331 329 329 329 331 327 329 327 321 332 291 286 262 265 246 231 246 242 245 245 241 241 222 233 236 269 255 333 29 49 36 35 36 48 66 79 109 103
322 324 323 324 326 325 321 322 324 323 328 326 330 329 332 316 295 280 254 251 233 252 251 239 234 226 226 243 234 238 250 200 281 296 336 122 66 50 33 61 79 91 99
322 321 322 325 326 323 324 320 315 323 321 328 328 333 332 330 316 246 277 271 254 241 246 244 233 230 228 230 234 226 211 223 250 214 317 349 69 58 96 74 98 90 101
325 323 322 323 325 327 323 320 317 318 322 328 332 328 330 338 298 274 270 293 258 246 233 243 225 219 225 231 217 209 217 231 248 235 208 159 238 329 92 88 140 137 60
326 326 322 323 330 328 327 325 324 327 332 332 331 323 329 329 336 290 287 288 283 264 228 230 229 228 213 237 221 220 223 242 232 220 229 259 232 272 145 107 146 172 178
327 328 328 329 331 329 329 328 331 333 331 325 320 325 322 328 325 325 295 277 260 268 251 238 238 210 203 227 234 221 222 232 237 228 226 210 169 171 178 126 134 181 190
333 334 334 336 338 339 337 331 328 326 326 324 324 321 328 324 329 326 333 294 280 256 252 245 247 235 219 214 226 218 217 222 238 235 242 222 201 210 220 222 208 52 108
336 337 338 337 340 340 337 335 342 335 330 327 326 321 321 324 328 327 336 348 311 279 256 258 241 226 218 216 208 202 194 199 207 253 157 174 224 258 238 235 243 260 271
341 340 338 336 341 339 343 342 333 339 336 328 331 330 322 328 326 329 324 345 359 339 293 280 240 239 232 235 208 215 221 207 194 207 232 250 258 256 219 242 249 254 239
340 340 339 338 337 341 339 339 344 338 335 332 336 333 324 323 319 319 335 336 333 352 307 296 249 247 231 206 216 198 203 208 203 207 212 224 230 234 236 233 237 243 242
341 340 339 340 339 336 338 343 345 349 347 344 340 339 333 321 320 314 329 334 318 340 355 287 284 229 232 235 208 226 193 185 182 199 223 228 227 230 229 229 232 234 238
Wind_Speed_850mb
23 32 34 32 28 27 29 31 20 22 19 16 19 29 26 20 18 19 19 23 19 21 22 18 22 24 22 27 35 26 26 24 27 30 32 36 32 36 30 33 37 38 47
13 20 30 30 35 40 31 34 27 24 22 18 17 23 21 21 20 22 25 26 21 21 19 24 23 26 25 28 28 27 24 22 26 27 30 33 30 28 32 26 30 37 35
18 21 17 22 32 36 36 30 28 28 26 19 15 22 30 27 19 18 24 31 25 21 21 24 27 24 25 25 27 24 24 28 21 24 20 20 24 34 25 24 34 29 29
14 12 15 12 26 25 40 32 30 29 25 19 13 16 19 21 30 30 30 32 30 22 23 23 24 28 24 31 25 24 26 23 25 25 21 28 31 26 28 18 20 22 30
20 15 16 18 19 22 31 26 32 31 23 21 19 14 20 24 25 28 31 29 26 19 23 19 24 27 21 30 22 26 27 22 27 26 37 33 31 34 38 40 35 25 24
14 17 20 26 20 30 39 29 24 16 16 17 19 20 21 21 25 26 22 18 20 25 28 25 21 24 29 21 21 23 25 22 24 20 28 27 35 36 39 40 44 39 43
13 21 20 24 31 23 22 23 19 28 25 18 19 22 23 23 27 23 20 19 16 17 15 19 19 21 25 18 20 23 22 24 21 26 29 36 44 41 42 39 46 45 45
26 25 27 27 32 33 34 28 26 31 18 16 32 26 25 21 22 27 15 22 15 18 19 16 18 22 22 12 20 21 20 25 28 28 31 41 47 29 26 34 36 21 23
27 29 31 24 28 33 36 37 31 29 28 33 40 37 24 26 27 25 24 21 17 14 13 20 17 23 20 15 20 23 22 24 25 26 25 36 39 29 14 15 19 17 6
26 23 23 25 28 34 36 33 36 34 43 31 35 31 33 32 30 22 27 24 23 22 18 17 15 17 18 17 19 22 25 20 22 21 20 24 27 34 11 8 11 13 18
24 28 30 30 31 33 34 36 37 39 45 44 39 39 45 39 37 33 29 27 26 24 26 20 20 15 18 20 19 20 18 13 14 18 19 19 18 35 14 8 10 2 6
28 28 28 28 28 31 34 36 37 38 39 39 55 37 34 43 47 40 27 29 31 27 27 21 21 17 20 13 14 17 11 11 14 18 20 18 18 19 30 14 5 1 1
21 27 29 31 34 34 35 38 39 41 41 50 44 42 43 39 42 41 40 31 30 32 25 18 18 12 13 12 9 8 9 9 11 16 21 23 17 19 16 17 23 23 12
22 25 30 35 36 34 37 39 40 41 43 43 43 44 41 40 42 44 36 33 27 29 27 23 20 21 11 12 11 5 8 5 7 11 15 19 20 15 15 13 19 21 17
25 28 31 35 36 37 38 40 40 40 44 43 43 57 46 39 37 39 32 29 24 30 25 29 21 17 14 14 11 5 5 6 7 10 13 18 22 20 17 13 9 23 25
29 33 33 36 37 39 39 39 40 43 42 50 46 53 57 38 38 40 26 29 23 29 24 20 18 16 15 21 21 9 6 5 3 5 6 9 16 19 15 17 17 23 23
32 36 38 36 37 39 40 38 43 45 48 44 51 46 53 42 41 31 29 26 27 23 24 20 19 20 24 21 25 19 11 6 7 3 8 10 12 13 14 14 15 19 14
38 40 40 39 38 42 42 47 46 46 45 46 45 48 50 40 20 16 21 21 25 25 20 26 21 21 22 23 19 19 14 9 8 5 2 3 10 13 8 9 9 10 7
39 41 41 42 41 47 45 46 43 44 39 40 43 49 44 40 23 17 27 20 23 27 18 17 22 21 25 25 22 18 17 18 9 8 9 1 5 3 7 8 6 6 3
39 40 41 39 39 41 37 41 37 38 35 39 47 49 42 34 30 22 23 27 22 24 26 28 22 22 21 24 28 24 21 22 15 14 14 11 11 5 4 8 6 7 5
36 35 36 36 37 36 40 41 42 38 43 42 42 42 42 34 27 29 23 30 29 26 23 26 28 25 24 23 20 23 27 26 25 19 21 20 10 7 7 9 6 8 8
32 33 34 33 31 31 39 37 40 44 40 43 41 42 40 34 29 30 26 19 24 34 29 27 27 21 25 30 26 23 20 24 20 16 27 31 14 8 12 10 7 2 3
31 31 31 32 31 36 35 35 36 36 38 38 39 39 38 33 30 31 24 18 15 14 27 23 26 28 30 39 27 20 15 21 23 17 8 10 8 14 22 21 17 11 6
28 29 32 34 33 33 32 36 41 38 42 40 37 38 34 36 30 30 25 16 17 10 17 16 21 32 19 30 32 31 24 20 28 28 24 19 21 16 17 22 24 25 17
26 29 31 30 31 30 33 33 38 42 39 35 34 35 37 30 29 30 29 22 15 24 8 11 27 18 23 13 25 10 28 23 26 25 21 20 15 15 15 17 20 18 16
27 30 30 27 30 32 31 33 34 37 38 36 33 35 30 31 24 27 27 24 16 17 24 15 19 29 26 20 25 25 15 19 23 21 23 27 24 20 20 20 20 19 21
Wind_Direction_850mb
236 223 223 226 239 234 248 276 265 259 268 300 321 330 325 311 306 310 311 305 300 303 297 303 298 298 291 292 299 313 301 313 310 302 296 291 276 265 261 256 252 250 246
212 202 228 237 235 246 261 254 260 245 254 278 291 318 333 318 292 290 295 308 298 294 293 291 288 295 293 295 301 300 310 313 313 313 303 291 289 266 241 259 252 249 248
224 195 212 231 250 248 243 251 249 240 242 250 296 312 315 284 289 297 302 295 289 288 287 288 291 289 292 290 289 306 308 309 307 303 301 310 291 311 286 258 248 250 250
261 260 265 225 252 243 236 231 241 237 241 244 268 290 321 296 296 291 286 285 281 260 283 276 285 285 281 281 287 297 300 305 308 299 309 291 289 289 288 269 250 253 254
346 293 284 317 296 284 231 235 246 224 231 230 246 287 312 296 296 288 294 300 303 278 291 279 279 286 285 283 292 299 290 300 309 322 323 301 289 284 269 274 270 264 255
346 326 297 331 313 292 305 309 303 195 218 226 250 269 292 295 288 296 296 296 297 309 301 280 283 282 283 289 293 289 293 302 302 314 335 330 308 283 276 264 275 269 263
7 345 359 338 337 333 340 341 303 291 248 222 249 265 272 282 293 311 301 299 321 309 284 290 285 281 288 294 300 309 307 308 300 305 319 324 323 297 273 262 270 265 267
11 355 1 349 334 330 325 326 325 325 308 261 252 256 263 272 285 285 275 284 283 296 304 297 287 283 294 304 308 322 313 299 298 299 316 339 324 324 280 261 256 247 235
13 6 357 355 335 329 326 322 316 308 291 273 255 237 254 265 260 268 270 267 271 294 312 285 295 282 285 297 312 306 307 311 302 302 322 353 350 329 306 246 230 227 270
3 355 347 336 330 327 319 326 329 313 305 288 275 278 271 276 277 258 278 274 265 277 276 301 300 298 275 290 303 305 303 311 311 321 324 349 351 5 317 195 196 199 223
333 324 333 333 333 331 329 330 325 320 316 315 288 261 266 270 257 263 263 274 282 280 274 286 294 290 291 299 288 303 311 320 329 336 349 334 338 11 34 156 154 221 249
336 338 341 336 337 335 335 335 334 330 324 315 302 302 275 263 265 259 253 270 271 269 279 279 277 270 286 284 279 308 348 4 355 0 9 15 17 16 49 83 117 115 118
339 333 337 337 333 331 332 334 331 328 326 322 317 300 280 270 261 258 260 265 258 269 267 283 271 255 281 264 268 293 338 358 6 16 25 33 38 36 42 69 68 85 85
339 337 337 340 337 334 332 329 329 329 326 326 326 312 290 274 266 253 267 256 251 263 253 266 263 256 255 254 254 344 303 340 20 23 42 45 45 38 59 76 89 81 97
336 334 335 336 336 336 332 331 332 330 329 326 324 332 310 278 273 268 260 251 240 257 258 255 234 248 239 238 220 289 286 321 3 56 58 42 44 47 56 52 102 98 93
333 327 327 326 329 331 329 329 329 331 327 329 327 321 332 291 286 262 265 246 231 246 242 245 245 241 241 222 233 236 269 255 333 29 49 36 35 36 48 66 79 109 103
322 324 323 324 326 325 321 322 324 323 328 326 330 329 332 316 295 280 254 251 233 252 251 239 234 226 226 243 234 238 250 200 281 296 336 122 66 50 33 61 79 91 99
322 321 322 325 326 323 324 320 315 323 321 328 328 333 332 330 316 246 277 271 254 241 246 244 233 230 228 230 234 226 211 223 250 214 317 349 69 58 96 74 98 90 101
325 323 322 323 325 327 323 320 317 318 322 328 332 328 330 338 298 274 270 293 258 246 233 243 225 219 225 231 217 209 217 231 248 235 208 159 238 329 92 88 140 137 60
326 326 322 323 330 328 327 325 324 327 332 332 331 323 329 329 336 290 287 288 283 264 228 230 229 228 213 237 221 220 223 242 232 220 229 259 232 272 145 107 146 172 178
327 328 328 329 331 329 329 328 331 333 331 325 320 325 322 328 325 325 295 277 260 268 251 238 238 210 203 227 234 221 222 232 237 228 226 210 169 171 178 126 134 181 190
333 334 334 336 338 339 337 331 328 326 326 324 324 321 328 324 329 326 333 294 280 256 252 245 247 235 219 214 226 218 217 222 238 235 242 222 201 210 220 222 208 52 108
336 337 338 337 340 340 337 335 342 335 330 327 326 321 321 324 328 327 336 348 311 279 256 258 241 226 218 216 208 202 194 199 207 253 157 174 224 258 238 235 243 260 271
341 340 338 336 341 339 343 342 333 339 336 328 331 330 322 328 326 329 324 345 359 339 293 280 240 239 232 235 208 215 221 207 194 207 232 250 258 256 219 242 249 254 239
340 340 339 338 337 341 339 339 344 338 335 332 336 333 324 323 319 319 335 336 333 352 307 296 249 247 231 206 216 198 203 208 203 207 212 224 230 234 236 233 237 243 242
341 340 339 340 339 336 338 343 345 349 347 344 340 339 333 321 320 314 329 334 318 340 355 287 284 229 232 235 208 226 193 185 182 199 223 228 227 230 229 229 232 234 238